| time (UTC) | temp F | wind direction | speed MPH | gust MPH | rain 1hr in | rain 24hr in | rain mn in | humidity % | barometer mb |
| 20260506094536 | 54 | 0 | 0.0 | 1.0 | 0.00 | 0.01 | 0.00 | 85 | 1018.8 |
| 20260506094017 | 54 | 0 | 0.0 | 0.0 | 0.00 | 0.01 | 0.00 | 85 | 1019.0 |
| 20260506093520 | 54 | 0 | 0.0 | 0.0 | 0.00 | 0.01 | 0.00 | 85 | 1018.9 |
| 20260506093034 | 54 | 0 | 0.0 | 0.0 | 0.00 | 0.01 | 0.00 | 84 | 1018.9 |
| 20260506092520 | 54 | 0 | 0.0 | 0.0 | 0.00 | 0.01 | 0.00 | 84 | 1018.9 |
| 20260506092019 | 54 | 0 | 0.0 | 0.0 | 0.00 | 0.01 | 0.00 | 84 | 1018.7 |
| 20260506091541 | 54 | 0 | 0.0 | 1.0 | 0.00 | 0.01 | 0.00 | 84 | 1018.7 |
| 20260506091016 | 54 | 0 | 0.0 | 1.0 | 0.00 | 0.01 | 0.00 | 84 | 1018.7 |
| 20260506090516 | 54 | 0 | 0.0 | 0.0 | 0.00 | 0.01 | 0.00 | 84 | 1018.8 |
| 20260506090041 | 54 | 0 | 0.0 | 1.0 | 0.00 | 0.01 | 0.00 | 84 | 1018.7 |
| 20260506085520 | 54 | 0 | 0.0 | 1.0 | 0.00 | 0.04 | 0.00 | 84 | 1018.8 |
| 20260506085019 | 54 | 0 | 0.0 | 0.0 | 0.00 | 0.04 | 0.00 | 84 | 1018.7 |
| 20260506084541 | 54 | 0 | 0.0 | 0.0 | 0.00 | 0.04 | 0.00 | 84 | 1018.8 |
| 20260506084022 | 54 | 0 | 0.0 | 2.0 | 0.00 | 0.04 | 0.00 | 84 | 1018.8 |
| 20260506083520 | 54 | 0 | 0.0 | 2.0 | 0.00 | 0.04 | 0.00 | 84 | 1018.8 |
| 20260506083037 | 54 | 0 | 0.0 | 0.0 | 0.00 | 0.04 | 0.00 | 84 | 1018.9 |
| 20260506082518 | 54 | 0 | 0.0 | 0.0 | 0.00 | 0.04 | 0.00 | 84 | 1018.9 |
| 20260506082018 | 54 | 0 | 0.0 | 1.0 | 0.00 | 0.04 | 0.00 | 84 | 1018.9 |
| 20260506081544 | 54 | 0 | 0.0 | 1.0 | 0.00 | 0.04 | 0.00 | 84 | 1018.9 |
| 20260506081019 | 54 | 0 | 0.0 | 1.0 | 0.00 | 0.04 | 0.00 | 84 | 1018.9 |
| 20260506080518 | 54 | 0 | 0.0 | 1.0 | 0.00 | 0.04 | 0.00 | 84 | 1019.0 |
| 20260506073519 | 54 | 297 | 0.0 | 2.0 | 0.00 | 0.08 | 0.00 | 84 | 1018.7 |
| 20260506073037 | 54 | 0 | 0.0 | 1.0 | 0.00 | 0.08 | 0.00 | 84 | 1018.6 |
| 20260506072519 | 54 | 0 | 0.0 | 2.0 | 0.00 | 0.08 | 0.00 | 84 | 1018.7 |
| 20260506072019 | 54 | 0 | 0.0 | 2.0 | 0.00 | 0.08 | 0.00 | 84 | 1018.5 |
| 20260506071539 | 54 | 0 | 0.0 | 1.0 | 0.00 | 0.08 | 0.00 | 84 | 1018.6 |
| 20260506071018 | 54 | 0 | 0.0 | 2.0 | 0.00 | 0.08 | 0.00 | 84 | 1018.5 |
| 20260506070521 | 54 | 0 | 0.0 | 2.0 | 0.00 | 0.08 | 0.00 | 85 | 1018.5 |
| 20260506062019 | 54 | 0 | 0.0 | 1.0 | 0.00 | 0.09 | 0.08 | 85 | 1018.1 |
| 20260506061540 | 54 | 0 | 0.0 | 1.0 | 0.00 | 0.09 | 0.08 | 84 | 1018.2 |
| 20260506061019 | 54 | 0 | 0.0 | 0.0 | 0.00 | 0.09 | 0.08 | 84 | 1018.1 |
| 20260506060518 | 54 | 0 | 0.0 | 1.0 | 0.00 | 0.09 | 0.08 | 84 | 1018.1 |
| 20260506051018 | 55 | 0 | 0.0 | 2.0 | 0.00 | 0.12 | 0.08 | 85 | 1018.0 |
| 20260506050518 | 55 | 0 | 0.0 | 1.0 | 0.00 | 0.12 | 0.08 | 85 | 1017.9 |
| 20260506045018 | 55 | 307 | 0.0 | 3.0 | 0.00 | 0.13 | 0.08 | 84 | 1017.7 |
| 20260506044545 | 55 | 294 | 0.0 | 2.0 | 0.00 | 0.13 | 0.08 | 84 | 1017.8 |
| 20260506044017 | 55 | 280 | 0.0 | 1.0 | 0.00 | 0.13 | 0.08 | 85 | 1017.8 |
| 20260506043518 | 54 | 0 | 0.0 | 1.0 | 0.00 | 0.13 | 0.08 | 85 | 1017.7 |
| 20260506043037 | 54 | 0 | 0.0 | 1.0 | 0.00 | 0.13 | 0.08 | 85 | 1017.6 |
| 20260506042524 | 54 | 0 | 0.0 | 0.0 | 0.00 | 0.13 | 0.08 | 85 | 1017.6 |
| 20260506042019 | 54 | 0 | 0.0 | 2.0 | 0.00 | 0.13 | 0.08 | 85 | 1017.6 |
| 20260506041537 | 54 | 0 | 0.0 | 2.0 | 0.00 | 0.13 | 0.08 | 85 | 1017.4 |
| 20260506041018 | 55 | 0 | 0.0 | 3.0 | 0.00 | 0.13 | 0.08 | 85 | 1017.3 |
| 20260506040518 | 55 | 0 | 0.0 | 3.0 | 0.00 | 0.13 | 0.08 | 85 | 1017.2 |
| 20260506040044 | 55 | 282 | 0.0 | 2.0 | 0.00 | 0.13 | 0.08 | 84 | 1017.0 |
| 20260506035521 | 55 | 0 | 0.0 | 2.0 | 0.00 | 0.13 | 0.08 | 85 | 1017.1 |
| 20260506035018 | 55 | 0 | 0.0 | 3.0 | 0.00 | 0.13 | 0.08 | 84 | 1017.1 |
| 20260506034541 | 55 | 252 | 0.0 | 3.0 | 0.00 | 0.13 | 0.08 | 84 | 1016.9 |
| 20260506034018 | 55 | 268 | 0.0 | 3.0 | 0.00 | 0.13 | 0.08 | 84 | 1016.9 |
| 20260506033519 | 55 | 0 | 0.0 | 3.0 | 0.00 | 0.13 | 0.08 | 84 | 1016.8 |
| 20260506033042 | 55 | 267 | 0.0 | 3.0 | 0.00 | 0.13 | 0.08 | 84 | 1016.8 |
| 20260506032518 | 55 | 276 | 0.0 | 2.0 | 0.00 | 0.13 | 0.08 | 83 | 1016.7 |
| 20260506032019 | 55 | 0 | 0.0 | 3.0 | 0.00 | 0.13 | 0.08 | 84 | 1016.6 |
| 20260506031540 | 55 | 0 | 0.0 | 3.0 | 0.00 | 0.13 | 0.08 | 83 | 1016.5 |
| 20260506031018 | 55 | 259 | 0.0 | 4.0 | 0.00 | 0.13 | 0.08 | 83 | 1016.5 |
| 20260506030519 | 55 | 0 | 0.0 | 4.0 | 0.00 | 0.13 | 0.08 | 83 | 1016.4 |
| 20260506030055 | 55 | 271 | 0.0 | 4.0 | 0.00 | 0.13 | 0.08 | 83 | 1016.4 |
| 20260506025518 | 55 | 293 | 1.0 | 4.0 | 0.00 | 0.13 | 0.08 | 83 | 1016.3 |
| 20260506025022 | 55 | 0 | 0.0 | 4.0 | 0.00 | 0.13 | 0.08 | 84 | 1016.3 |
| 20260506024550 | 55 | 267 | 1.0 | 4.0 | 0.00 | 0.13 | 0.08 | 83 | 1016.4 |
| 20260506024018 | 55 | 0 | 1.0 | 4.0 | 0.00 | 0.13 | 0.08 | 83 | 1016.3 |
| 20260506023519 | 55 | 284 | 0.0 | 4.0 | 0.00 | 0.13 | 0.08 | 83 | 1016.3 |
| 20260506023035 | 55 | 296 | 1.0 | 4.0 | 0.00 | 0.13 | 0.08 | 83 | 1016.2 |
| 20260506022518 | 56 | 0 | 1.0 | 6.0 | 0.00 | 0.13 | 0.08 | 83 | 1016.1 |
| 20260506022018 | 56 | 274 | 1.0 | 6.0 | 0.00 | 0.13 | 0.08 | 82 | 1015.9 |
| 20260506021542 | 56 | 288 | 2.0 | 6.0 | 0.00 | 0.13 | 0.08 | 82 | 1015.8 |
| 20260506021018 | 56 | 0 | 1.0 | 6.0 | 0.00 | 0.13 | 0.08 | 83 | 1015.8 |
| 20260506020522 | 56 | 295 | 1.0 | 6.0 | 0.00 | 0.13 | 0.08 | 83 | 1015.9 |
| 20260506020040 | 56 | 283 | 2.0 | 6.0 | 0.00 | 0.13 | 0.08 | 82 | 1015.9 |
| 20260506015518 | 56 | 276 | 2.0 | 6.0 | 0.00 | 0.13 | 0.08 | 83 | 1015.7 |
| 20260506015018 | 56 | 0 | 1.0 | 5.0 | 0.00 | 0.13 | 0.08 | 83 | 1015.9 |
| 20260506014552 | 57 | 270 | 1.0 | 7.0 | 0.00 | 0.13 | 0.08 | 82 | 1015.8 |
| 20260506014017 | 56 | 0 | 1.0 | 7.0 | 0.00 | 0.13 | 0.08 | 82 | 1015.8 |
| 20260506013518 | 57 | 262 | 1.0 | 5.0 | 0.00 | 0.13 | 0.08 | 82 | 1015.8 |
| 20260506013037 | 57 | 0 | 0.0 | 6.0 | 0.00 | 0.13 | 0.08 | 82 | 1015.9 |
| 20260506012519 | 57 | 0 | 1.0 | 7.0 | 0.00 | 0.13 | 0.08 | 81 | 1015.9 |
| 20260506012018 | 57 | 300 | 1.0 | 7.0 | 0.00 | 0.13 | 0.08 | 80 | 1016.0 |
| 20260506011539 | 57 | 292 | 3.0 | 7.0 | 0.00 | 0.13 | 0.08 | 79 | 1015.7 |
| 20260506011022 | 57 | 282 | 3.0 | 7.0 | 0.00 | 0.13 | 0.08 | 79 | 1015.9 |
| 20260506010518 | 57 | 292 | 1.0 | 6.0 | 0.00 | 0.13 | 0.08 | 79 | 1015.8 |
| 20260506010050 | 57 | 252 | 2.0 | 6.0 | 0.00 | 0.13 | 0.08 | 80 | 1015.8 |
| 20260506005518 | 57 | 298 | 4.0 | 6.0 | 0.00 | 0.13 | 0.08 | 78 | 1015.7 |
| 20260506005018 | 58 | 271 | 1.0 | 6.0 | 0.00 | 0.13 | 0.08 | 77 | 1015.8 |
| 20260506004549 | 57 | 200 | 2.0 | 6.0 | 0.00 | 0.13 | 0.08 | 78 | 1015.8 |
| 20260506004021 | 58 | 271 | 2.0 | 6.0 | 0.00 | 0.13 | 0.08 | 77 | 1015.7 |
| 20260506003519 | 58 | 283 | 2.0 | 6.0 | 0.00 | 0.13 | 0.08 | 76 | 1015.5 |
| 20260506003042 | 58 | 288 | 2.0 | 6.0 | 0.00 | 0.13 | 0.08 | 79 | 1015.5 |
| 20260506002520 | 58 | 268 | 0.0 | 6.0 | 0.00 | 0.13 | 0.08 | 78 | 1015.5 |
| 20260506002020 | 58 | 276 | 2.0 | 6.0 | 0.00 | 0.13 | 0.08 | 78 | 1015.5 |
| 20260506001538 | 58 | 0 | 2.0 | 6.0 | 0.00 | 0.13 | 0.08 | 79 | 1015.5 |
| 20260506001018 | 57 | 259 | 2.0 | 6.0 | 0.00 | 0.13 | 0.08 | 79 | 1015.4 |
| 20260506000518 | 58 | 274 | 2.0 | 7.0 | 0.00 | 0.13 | 0.08 | 79 | 1015.6 |
| 20260506000038 | 57 | 285 | 3.0 | 7.0 | 0.00 | 0.13 | 0.08 | 79 | 1015.4 |
| 20260505235517 | 57 | 255 | 2.0 | 7.0 | 0.00 | 0.13 | 0.08 | 81 | 1015.4 |
| 20260505235018 | 57 | 231 | 1.0 | 7.0 | 0.00 | 0.13 | 0.08 | 80 | 1015.4 |
| 20260505234537 | 57 | 293 | 3.0 | 7.0 | 0.00 | 0.13 | 0.08 | 80 | 1015.5 |
| 20260505234018 | 58 | 250 | 1.0 | 7.0 | 0.00 | 0.13 | 0.08 | 80 | 1015.6 |
| 20260505233521 | 57 | 290 | 2.0 | 8.0 | 0.00 | 0.13 | 0.08 | 79 | 1015.6 |
| 20260505233044 | 58 | 278 | 2.0 | 8.0 | 0.00 | 0.13 | 0.08 | 80 | 1015.6 |
| 20260505232553 | 58 | 281 | 2.0 | 8.0 | 0.00 | 0.13 | 0.08 | 79 | 1015.6 |
| 20260505232018 | 58 | 276 | 2.0 | 7.0 | 0.00 | 0.13 | 0.08 | 79 | 1015.6 |
| 20260505231542 | 58 | 253 | 4.0 | 7.0 | 0.00 | 0.13 | 0.08 | 79 | 1015.6 |
| 20260505231018 | 58 | 284 | 3.0 | 7.0 | 0.00 | 0.13 | 0.08 | 78 | 1015.5 |
| 20260505230519 | 58 | 279 | 3.0 | 7.0 | 0.00 | 0.13 | 0.08 | 79 | 1015.5 |
| 20260505230047 | 58 | 268 | 3.0 | 7.0 | 0.00 | 0.13 | 0.08 | 79 | 1015.4 |
| 20260505225518 | 58 | 276 | 4.0 | 7.0 | 0.00 | 0.13 | 0.08 | 77 | 1015.4 |
| 20260505225022 | 58 | 271 | 3.0 | 7.0 | 0.00 | 0.13 | 0.08 | 78 | 1015.4 |
| 20260505224546 | 58 | 289 | 2.0 | 7.0 | 0.00 | 0.13 | 0.08 | 79 | 1015.3 |
| 20260505224018 | 58 | 256 | 3.0 | 8.0 | 0.00 | 0.13 | 0.08 | 80 | 1015.5 |
| 20260505223520 | 58 | 294 | 2.0 | 8.0 | 0.00 | 0.13 | 0.08 | 79 | 1015.4 |
| 20260505223037 | 58 | 264 | 4.0 | 8.0 | 0.00 | 0.13 | 0.08 | 79 | 1015.5 |
| 20260505222519 | 58 | 255 | 3.0 | 7.0 | 0.00 | 0.13 | 0.08 | 81 | 1015.4 |
| 20260505222020 | 57 | 286 | 3.0 | 7.0 | 0.00 | 0.13 | 0.08 | 81 | 1015.5 |
| 20260505221537 | 57 | 285 | 2.0 | 6.0 | 0.00 | 0.13 | 0.08 | 80 | 1015.8 |
| 20260505221019 | 57 | 255 | 2.0 | 6.0 | 0.00 | 0.13 | 0.08 | 81 | 1015.8 |
| 20260505220518 | 57 | 268 | 3.0 | 6.0 | 0.00 | 0.13 | 0.08 | 81 | 1015.8 |
| 20260505220043 | 57 | 275 | 3.0 | 6.0 | 0.00 | 0.13 | 0.08 | 80 | 1015.8 |
| 20260505215518 | 57 | 276 | 1.0 | 6.0 | 0.00 | 0.13 | 0.08 | 81 | 1015.9 |
| 20260505215022 | 57 | 248 | 2.0 | 6.0 | 0.00 | 0.13 | 0.08 | 82 | 1015.9 |
| 20260505214541 | 57 | 244 | 4.0 | 6.0 | 0.00 | 0.13 | 0.08 | 81 | 1016.0 |
| 20260505214020 | 57 | 280 | 1.0 | 7.0 | 0.00 | 0.13 | 0.08 | 81 | 1015.8 |
| 20260505213520 | 57 | 281 | 4.0 | 7.0 | 0.00 | 0.13 | 0.08 | 81 | 1015.8 |
| 20260505213046 | 58 | 269 | 1.0 | 6.0 | 0.00 | 0.13 | 0.08 | 79 | 1015.9 |
| 20260505212518 | 57 | 306 | 2.0 | 6.0 | 0.00 | 0.13 | 0.08 | 79 | 1015.9 |
| 20260505212020 | 58 | 290 | 2.0 | 5.0 | 0.00 | 0.13 | 0.08 | 80 | 1016.0 |
| 20260505211544 | 58 | 309 | 0.0 | 7.0 | 0.00 | 0.13 | 0.08 | 79 | 1016.0 |
| 20260505211018 | 57 | 0 | 1.0 | 7.0 | 0.00 | 0.13 | 0.08 | 79 | 1015.9 |
| 20260505210518 | 58 | 269 | 1.0 | 6.0 | 0.00 | 0.13 | 0.08 | 79 | 1016.0 |
| 20260505210037 | 58 | 0 | 0.0 | 6.0 | 0.00 | 0.13 | 0.08 | 78 | 1015.8 |
| 20260505205520 | 58 | 288 | 2.0 | 6.0 | 0.00 | 0.13 | 0.08 | 78 | 1015.9 |
| 20260505205017 | 58 | 0 | 2.0 | 5.0 | 0.00 | 0.13 | 0.08 | 79 | 1015.9 |
| 20260505204537 | 58 | 285 | 1.0 | 5.0 | 0.00 | 0.13 | 0.08 | 79 | 1016.1 |
| 20260505204020 | 58 | 290 | 2.0 | 5.0 | 0.00 | 0.13 | 0.08 | 79 | 1015.9 |
| 20260505203517 | 58 | 243 | 1.0 | 5.0 | 0.00 | 0.13 | 0.08 | 78 | 1015.9 |
| 20260505203044 | 58 | 0 | 1.0 | 6.0 | 0.00 | 0.13 | 0.08 | 78 | 1015.9 |
| 20260505202519 | 58 | 281 | 1.0 | 7.0 | 0.00 | 0.13 | 0.08 | 78 | 1016.0 |
| 20260505202100 | 58 | 267 | 2.0 | 7.0 | 0.00 | 0.13 | 0.08 | 77 | 1016.0 |
| 20260505201540 | 58 | 280 | 2.0 | 6.0 | 0.00 | 0.13 | 0.08 | 77 | 1015.9 |
| 20260505201019 | 58 | 258 | 3.0 | 6.0 | 0.00 | 0.13 | 0.08 | 77 | 1015.9 |
| 20260505200518 | 58 | 304 | 0.0 | 6.0 | 0.00 | 0.13 | 0.08 | 78 | 1016.0 |
| 20260505200041 | 58 | 0 | 0.0 | 6.0 | 0.00 | 0.13 | 0.08 | 78 | 1015.8 |
| 20260505195521 | 58 | 0 | 0.0 | 5.0 | 0.00 | 0.13 | 0.08 | 78 | 1016.0 |
| 20260505195017 | 58 | 284 | 0.0 | 6.0 | 0.00 | 0.13 | 0.08 | 80 | 1016.1 |
| 20260505194537 | 58 | 309 | 2.0 | 6.0 | 0.00 | 0.13 | 0.08 | 79 | 1016.1 |
| 20260505194018 | 58 | 0 | 0.0 | 6.0 | 0.00 | 0.13 | 0.08 | 77 | 1016.2 |
| 20260505193522 | 58 | 276 | 1.0 | 6.0 | 0.00 | 0.13 | 0.08 | 78 | 1016.1 |
| 20260505193054 | 58 | 270 | 1.0 | 5.0 | 0.00 | 0.13 | 0.08 | 79 | 1016.1 |
| 20260505192521 | 58 | 0 | 0.0 | 3.0 | 0.00 | 0.13 | 0.08 | 79 | 1016.2 |
| 20260505192018 | 58 | 0 | 0.0 | 3.0 | 0.00 | 0.13 | 0.08 | 79 | 1016.1 |
| 20260505191540 | 57 | 317 | 0.0 | 1.0 | 0.00 | 0.13 | 0.08 | 79 | 1016.1 |
| 20260505191018 | 57 | 0 | 0.0 | 2.0 | 0.00 | 0.13 | 0.08 | 79 | 1016.3 |
| 20260505190518 | 57 | 0 | 0.0 | 3.0 | 0.00 | 0.13 | 0.08 | 80 | 1015.9 |
| 20260505190043 | 57 | 0 | 0.0 | 5.0 | 0.00 | 0.13 | 0.08 | 81 | 1015.9 |
| 20260505185519 | 56 | 0 | 0.0 | 5.0 | 0.00 | 0.13 | 0.08 | 82 | 1015.9 |
| 20260505185018 | 56 | 283 | 1.0 | 5.0 | 0.00 | 0.13 | 0.08 | 81 | 1015.9 |
| 20260505184541 | 56 | 0 | 0.0 | 4.0 | 0.00 | 0.13 | 0.08 | 82 | 1015.8 |
| 20260505184018 | 56 | 270 | 0.0 | 4.0 | 0.00 | 0.13 | 0.08 | 81 | 1015.9 |
| 20260505183517 | 56 | 0 | 1.0 | 4.0 | 0.00 | 0.13 | 0.08 | 81 | 1015.9 |
| 20260505183037 | 57 | 268 | 0.0 | 3.0 | 0.00 | 0.13 | 0.08 | 82 | 1016.1 |
| 20260505182518 | 57 | 0 | 0.0 | 4.0 | 0.00 | 0.13 | 0.08 | 82 | 1016.0 |
| 20260505182019 | 56 | 0 | 0.0 | 4.0 | 0.00 | 0.13 | 0.08 | 82 | 1016.1 |
| 20260505181540 | 56 | 0 | 0.0 | 4.0 | 0.00 | 0.13 | 0.08 | 83 | 1016.0 |
| 20260505181019 | 56 | 0 | 0.0 | 2.0 | 0.00 | 0.13 | 0.08 | 83 | 1015.9 |
| 20260505180517 | 56 | 0 | 0.0 | 2.0 | 0.00 | 0.13 | 0.08 | 83 | 1015.9 |
| 20260505180045 | 56 | 0 | 0.0 | 2.0 | 0.00 | 0.13 | 0.08 | 83 | 1015.9 |
| 20260505175518 | 55 | 0 | 0.0 | 5.0 | 0.00 | 0.13 | 0.08 | 84 | 1015.7 |
| 20260505175018 | 55 | 0 | 0.0 | 5.0 | 0.00 | 0.13 | 0.08 | 83 | 1015.6 |
| 20260505174542 | 55 | 285 | 0.0 | 5.0 | 0.00 | 0.13 | 0.08 | 84 | 1015.6 |
| 20260505174018 | 55 | 297 | 0.0 | 4.0 | 0.00 | 0.13 | 0.08 | 84 | 1015.6 |
| 20260505173520 | 55 | 302 | 0.0 | 3.0 | 0.00 | 0.13 | 0.08 | 84 | 1015.7 |
| 20260505173041 | 55 | 290 | 0.0 | 3.0 | 0.00 | 0.13 | 0.08 | 84 | 1015.6 |
| 20260505172517 | 54 | 0 | 0.0 | 3.0 | 0.00 | 0.13 | 0.08 | 84 | 1015.5 |
| 20260505172018 | 54 | 291 | 0.0 | 4.0 | 0.00 | 0.13 | 0.08 | 85 | 1015.6 |
| 20260505171547 | 54 | 311 | 0.0 | 4.0 | 0.00 | 0.13 | 0.08 | 85 | 1015.6 |
| 20260505171019 | 54 | 299 | 0.0 | 4.0 | 0.00 | 0.13 | 0.08 | 85 | 1015.6 |
| 20260505170517 | 54 | 301 | 1.0 | 4.0 | 0.00 | 0.13 | 0.08 | 85 | 1015.5 |
| 20260505170041 | 54 | 296 | 0.0 | 3.0 | 0.00 | 0.13 | 0.08 | 85 | 1015.5 |
| 20260505165517 | 54 | 302 | 0.0 | 4.0 | 0.00 | 0.13 | 0.08 | 85 | 1015.5 |
| 20260505165017 | 54 | 0 | 0.0 | 4.0 | 0.00 | 0.13 | 0.08 | 85 | 1015.5 |
| 20260505164540 | 54 | 0 | 0.0 | 4.0 | 0.00 | 0.13 | 0.08 | 86 | 1015.6 |
| 20260505164017 | 54 | 0 | 0.0 | 4.0 | 0.00 | 0.13 | 0.08 | 86 | 1015.5 |
| 20260505163519 | 54 | 0 | 0.0 | 3.0 | 0.00 | 0.13 | 0.08 | 86 | 1015.6 |
| 20260505163043 | 54 | 0 | 0.0 | 3.0 | 0.00 | 0.13 | 0.08 | 86 | 1015.6 |
| 20260505162518 | 54 | 0 | 0.0 | 4.0 | 0.00 | 0.13 | 0.08 | 86 | 1015.6 |
| 20260505162020 | 53 | 290 | 0.0 | 4.0 | 0.00 | 0.13 | 0.08 | 86 | 1015.5 |
| 20260505161544 | 53 | 0 | 0.0 | 3.0 | 0.00 | 0.13 | 0.08 | 86 | 1015.5 |
| 20260505161018 | 53 | 0 | 0.0 | 3.0 | 0.00 | 0.13 | 0.08 | 86 | 1015.3 |
| 20260505160518 | 53 | 0 | 0.0 | 3.0 | 0.00 | 0.13 | 0.08 | 86 | 1015.3 |
| 20260505153045 | 53 | 296 | 0.0 | 4.0 | 0.00 | 0.13 | 0.08 | 86 | 1015.1 |
| 20260505152518 | 53 | 0 | 1.0 | 4.0 | 0.00 | 0.13 | 0.08 | 86 | 1015.0 |
| 20260505152024 | 53 | 0 | 0.0 | 3.0 | 0.00 | 0.13 | 0.08 | 86 | 1015.1 |
| 20260505151538 | 53 | 326 | 0.0 | 3.0 | 0.00 | 0.13 | 0.08 | 86 | 1015.0 |
| 20260505151018 | 53 | 293 | 0.0 | 3.0 | 0.00 | 0.13 | 0.08 | 86 | 1015.1 |
| 20260505150517 | 53 | 277 | 0.0 | 2.0 | 0.00 | 0.13 | 0.08 | 85 | 1015.0 |
| 20260505140518 | 53 | 281 | 0.0 | 3.0 | 0.00 | 0.13 | 0.08 | 86 | 1014.6 |
| 20260505125018 | 52 | 252 | 1.0 | 3.0 | 0.00 | 0.13 | 0.08 | 85 | 1014.3 |
| 20260505124537 | 52 | 0 | 0.0 | 4.0 | 0.00 | 0.13 | 0.08 | 85 | 1014.4 |
| 20260505124018 | 52 | 269 | 1.0 | 5.0 | 0.00 | 0.13 | 0.08 | 85 | 1014.3 |
| 20260505123518 | 52 | 253 | 1.0 | 5.0 | 0.00 | 0.13 | 0.08 | 85 | 1014.3 |
| 20260505123048 | 52 | 279 | 1.0 | 5.0 | 0.00 | 0.13 | 0.08 | 85 | 1014.3 |
| 20260505122517 | 52 | 268 | 1.0 | 4.0 | 0.00 | 0.13 | 0.08 | 85 | 1014.4 |
| 20260505122017 | 52 | 250 | 1.0 | 5.0 | 0.00 | 0.13 | 0.08 | 85 | 1014.2 |
| 20260505121535 | 52 | 270 | 1.0 | 5.0 | 0.00 | 0.13 | 0.08 | 85 | 1014.3 |
| 20260505121017 | 52 | 269 | 1.0 | 4.0 | 0.00 | 0.13 | 0.08 | 85 | 1014.3 |
| 20260505120516 | 52 | 274 | 1.0 | 5.0 | 0.00 | 0.13 | 0.08 | 85 | 1014.3 |
| 20260505120052 | 52 | 272 | 2.0 | 5.0 | 0.00 | 0.13 | 0.08 | 85 | 1014.1 |
| 20260505115518 | 52 | 271 | 0.0 | 4.0 | 0.00 | 0.13 | 0.08 | 85 | 1014.3 |
| 20260505115018 | 52 | 265 | 0.0 | 4.0 | 0.00 | 0.13 | 0.08 | 85 | 1014.2 |
| 20260505114541 | 52 | 266 | 0.0 | 4.0 | 0.00 | 0.13 | 0.08 | 85 | 1014.2 |
| 20260505114017 | 52 | 266 | 1.0 | 4.0 | 0.00 | 0.13 | 0.08 | 85 | 1014.3 |
| 20260505113517 | 52 | 0 | 1.0 | 4.0 | 0.00 | 0.13 | 0.08 | 84 | 1014.3 |
| 20260505113037 | 52 | 0 | 0.0 | 4.0 | 0.00 | 0.13 | 0.08 | 84 | 1014.4 |
| 20260505112520 | 52 | 270 | 0.0 | 3.0 | 0.00 | 0.13 | 0.08 | 84 | 1014.5 |
| 20260505112017 | 52 | 0 | 0.0 | 4.0 | 0.00 | 0.13 | 0.08 | 84 | 1014.6 |
| 20260505111538 | 52 | 262 | 1.0 | 4.0 | 0.00 | 0.13 | 0.08 | 84 | 1014.5 |
| 20260505111020 | 51 | 266 | 1.0 | 4.0 | 0.00 | 0.13 | 0.08 | 84 | 1014.3 |
| 20260505110518 | 51 | 277 | 1.0 | 4.0 | 0.00 | 0.13 | 0.08 | 84 | 1014.4 |
| 20260505102017 | 52 | 0 | 0.0 | 2.0 | 0.01 | 0.13 | 0.08 | 85 | 1014.3 |
| 20260505101541 | 52 | 0 | 0.0 | 4.0 | 0.01 | 0.13 | 0.08 | 85 | 1014.4 |
| 20260505101018 | 52 | 0 | 0.0 | 4.0 | 0.01 | 0.13 | 0.08 | 85 | 1014.5 |
| 20260505100519 | 51 | 254 | 0.0 | 2.0 | 0.01 | 0.13 | 0.08 | 85 | 1014.7 |
| 20260505100038 | 51 | 290 | 0.0 | 2.0 | 0.01 | 0.13 | 0.08 | 85 | 1014.7 |
| 20260505095517 | 51 | 0 | 0.0 | 3.0 | 0.01 | 0.13 | 0.08 | 85 | 1014.6 |
| 20260505095017 | 51 | 0 | 0.0 | 3.0 | 0.01 | 0.13 | 0.08 | 85 | 1014.5 |